Powrót do katalogu

METEOR 2-5 DEB

LostPO
NORAD 38277·DEBRIS·🇷🇺 Russia

Wystrzelony Oct 31, 1979 z Plesetsk Cosmodrome

Loading…

Następne Przeloty (najbliższe 24 godziny)

TLE

NieaktualneSource: Space-Track

Epoka: Jun 25, 2024, 12:19 UTC

1 38277U 79095BX  24177.51338141  .00018188  00000-0  49589-2 0  9997
2 38277  81.2000  96.3913 0012804  75.9025  47.4948 14.47237947668503

Śledź METEOR 2-5 DEB w czasie rzeczywistym z AllMySat

Download on the App Store